Location: Unspecified
(48.2082°N, 0.0000°E)
Time: 03:54:53
(UTC+00:00)

Tiros 1 despin weight - Pass Details

Date: 22 June 2019
Orbit: 594 x 642 km, 48.2° (Epoch: 18 July)

Event Time Altitude Azimuth Distance (km) Brightness Sun altitude
Rises 04:47:36 0° 284° (WNW) 2,831 ? 5.8°
Reaches altitude 10° 04:50:04 10° 274° (W) 1,927 ? 6.2°
Maximum altitude 04:53:58 31° 212° (SSW) 1,044 ? 6.8°
Drops below altitude 10° 04:57:52 10° 150° (SSE) 1,928 ? 7.3°
Sets 05:00:20 0° 140° (SE) 2,833 ? 7.7°
